Tracking 19562 objects as of 25-Mar-2019
HD Live streaming from Space Station
objects crossing your sky now

AMC-3 (GE-3)

Track AMC-3 (GE-3) now!
AMC-3 (GE-3) is classified as:


NORAD ID: 24936
Int'l Code: 1997-050A
Perigee: 35,781.0 km
Apogee: 35,805.8 km
Inclination: 1.8 °
Period: 1,436.1 minutes
Semi major axis: 42164 km
RCS: 8.252 m2 (large)
Launch date: September 4, 1997
Source: SOCIETE EUROPEENNE DES SATELLITES (SES)
Launch site: AIR FORCE EASTERN TEST RANGE (AFETR)

Broadcasting, business, cable; CONUS, Hawaii, Caribbean, southern Canada; 24 Ku- and 24 C-band
aabbcc
Your satellite tracking list
Your tracking list is empty




NASA's NSSDC Master Catalog

Two Line Element Set (TLE):
1 24936U 97050A   19084.16230045 -.00000281  00000-0  00000+0 0  9999
2 24936   1.7768  88.9209 0002937 288.7122 151.1087  1.00273034 78965
Source of the keplerian elements: AFSPC